This demonstration page uses our WeatherBlox Daily Observations layout. Learn more.

40.92945, -100.16068

Hourly Observations for January 4, 2020

Temp ( °F °C ) Dew Point ( °F °C ) Humidity (%) Winds ( mph kmh ) Pressure ( in mb ) Visibility ( mi km ) Precip ( " mm )
12:15 am 00:15 Clear 23 -5 21 -6.1 92 92 W 3 6 30.33 1027 10 16.0934 0 0
12:35 am 00:35 Clear 22 -5.3 21 -6.2 93 93 W 6 9 30.32 1027 10 16.0934 0 0
12:55 am 00:55 Clear 22 -5.5 21 -6.2 95 95 W 3 6 30.32 1027 10 16.0934 0 0
1:15 am 01:15 Clear 22 -5.8 20 -6.5 95 95 Calm 30.33 1027 10 16.0934 0 0
1:35 am 01:35 Clear 22 -5.7 21 -6.3 96 96 Calm 30.33 1027 10 16.0934 0 0
1:55 am 01:55 Clear 21 -6 20 -6.4 97 97 Calm 30.34 1027 10 16.0934 0 0
2:15 am 02:15 Clear 20 -6.4 19 -7 96 96 W 6 9 30.35 1028 10 16.0934 0 0
2:35 am 02:35 Clear 20 -6.5 18 -7.6 92 92 W 6 9 30.35 1028 10 16.0934 0 0
2:55 am 02:55 Clear 20 -6.5 19 -7.5 93 93 W 6 9 30.35 1028 10 16.0934 0 0
3:15 am 03:15 Clear 20 -6.5 18 -7.6 92 92 WNW 3 6 30.35 1028 10 16.0934 0 0
3:35 am 03:35 Clear 20 -6.7 18 -7.7 93 93 NW 3 6 30.35 1028 10 16.0934 0 0
3:55 am 03:55 Clear 20 -6.9 18 -7.7 94 94 Calm 30.35 1028 10 16.0934 0 0
4:15 am 04:15 Clear 20 -6.5 19 -7.5 93 93 Calm 30.33 1027 10 16.0934 0 0
4:35 am 04:35 Clear 21 -6.3 19 -7.3 93 93 WNW 3 6 30.33 1027 10 16.0934 0 0
4:55 am 04:55 Mostly Cloudy 21 -6.1 19 -7.1 93 93 Calm 30.33 1027 10 16.0934 0 0
5:15 am 05:15 Cloudy 22 -5.4 20 -6.6 91 91 Calm 30.32 1027 10 16.0934 0 0
5:35 am 05:35 Cloudy 27 -3 22 -5.5 83 83 SW 7 11 30.28 1025 10 16.0934 0 0
5:55 am 05:55 Cloudy 28 -2.2 22 -5.5 78 78 SW 10 17 30.27 1025 10 16.0934 0 0
6:15 am 06:15 Cloudy 28 -2.1 21 -5.9 76 76 SW 12 19 30.26 1025 10 16.0934 0 0
6:35 am 06:35 Cloudy 29 -1.7 22 -5.3 77 77 SW 9 15 30.25 1025 10 16.0934 0 0
6:55 am 06:55 Cloudy 28 -2 23 -5.2 79 79 SW 9 15 30.25 1024 10 16.0934 0 0
7:15 am 07:15 Cloudy 29 -1.9 22 -5.5 77 77 SSW 7 11 30.25 1024 10 16.0934 0 0
7:35 am 07:35 Partly Cloudy 28 -2.2 22 -5.8 77 77 SW 9 15 30.25 1024 10 16.0934 0 0
7:55 am 07:55 Clear 28 -2.5 21 -6 77 77 SW 7 11 30.25 1024 10 16.0934 0 0
8:15 am 08:15 Sunny 28 -2.1 22 -5.7 77 77 SW 8 13 30.25 1024 10 16.0934 0 0
8:35 am 08:35 Sunny 28 -2.3 22 -5.5 79 79 SW 8 13 30.25 1024 10 16.0934 0 0
8:55 am 08:55 Sunny 28 -2.4 22 -5.3 81 81 WSW 7 11 30.26 1025 10 16.0934 0 0
9:15 am 09:15 Sunny 29 -1.8 23 -4.9 80 80 WSW 7 11 30.25 1024 10 16.0934 0 0
9:35 am 09:35 Sunny 29 -1.5 24 -4.5 80 80 Calm 30.24 1024 10 16.0934 0 0
9:55 am 09:55 Sunny 31 -0.4 25 -3.9 78 78 WSW 7 11 30.23 1024 10 16.0934 0 0
10:15 am 10:15 Sunny 33 0.5 26 -3.4 75 75 SSW 5 7 30.22 1023 10 16.0934 0 0
10:35 am 10:35 Sunny 34 1 26 -3.1 74 74 SW 3 6 30.22 1023 10 16.0934 0 0
10:55 am 10:55 Sunny 36 2 28 -2 75 75 WSW 7 11 30.21 1023 10 16.0934 0 0
11:15 am 11:15 Sunny 36 2.1 29 -1.9 75 75 WSW 8 13 30.19 1022 10 16.0934 0 0
11:35 am 11:35 Sunny 37 2.7 29 -1.5 74 74 SW 8 13 30.16 1021 10 16.0934 0 0
11:55 am 11:55 Sunny 38 3.3 30 -1.2 73 73 SW 7 11 30.13 1020 10 16.0934 0 0
12:15 pm 12:15 Sunny 40 4.3 31 -0.8 70 70 WSW 9 15 30.12 1020 10 16.0934 0 0
12:35 pm 12:35 Sunny 41 5 31 -0.4 68 68 WSW 7 11 30.1 1019 10 16.0934 0 0
12:55 pm 12:55 Sunny 41 5.2 32 -0.2 68 68 WSW 10 17 30.08 1018 10 16.0934 0 0
1:15 pm 13:15 Sunny 41 5.2 32 0 69 69 SW 12 19 30.06 1018 10 16.0934 0 0
1:35 pm 13:35 Sunny 41 5.1 32 0.1 70 70 SW 9 15 30.06 1018 10 16.0934 0 0
1:55 pm 13:55 Sunny 42 5.7 33 0.5 70 70 SW 9 15 30.03 1017 10 16.0934 0 0
2:15 pm 14:15 Sunny 44 6.7 34 1 67 67 SW 10 17 30.02 1017 10 16.0934 0 0
2:35 pm 14:35 Sunny 44 6.9 33 0.7 65 65 SW 10 17 30.02 1017 10 16.0934 0 0
2:55 pm 14:55 Sunny 45 7.1 33 0.8 65 65 SW 12 19 30.02 1017 10 16.0934 0 0
3:15 pm 15:15 Sunny 46 7.6 33 0.8 62 62 SSW 13 20 30 1016 10 16.0934 0 0
3:35 pm 15:35 Sunny 46 7.9 33 0.6 60 60 SSW 8 13 29.99 1016 10 16.0934 0 0
3:55 pm 15:55 Sunny 45 7.1 34 1 65 65 SSW 9 15 30.01 1016 10 16.0934 0 0
4:15 pm 16:15 Sunny 45 7 34 0.9 65 65 SSW 7 11 30 1016 10 16.0934 0 0
4:35 pm 16:35 Sunny 44 6.6 33 0.7 66 66 SSW 6 9 30.01 1016 10 16.0934 0 0
4:55 pm 16:55 Sunny 42 5.5 33 0.7 72 72 SSW 5 7 30.02 1017 10 16.0934 0 0
5:15 pm 17:15 Sunny 39 4.1 33 0.4 77 77 S 3 6 30.03 1017 10 16.0934 0 0
5:35 pm 17:35 Clear 39 4 33 0.5 78 78 S 3 6 30.02 1017 10 16.0934 0 0
5:55 pm 17:55 Clear 39 4 33 0.5 78 78 Calm 30.02 1017 10 16.0934 0 0
6:15 pm 18:15 Clear 40 4.6 33 0.4 74 74 SSW 6 9 30.01 1016 10 16.0934 0 0
6:35 pm 18:35 Clear 38 3.1 32 -0.1 80 80 S 5 7 30.02 1016 10 16.0934 0 0
6:55 pm 18:55 Clear 39 3.8 32 0 77 77 SSW 6 9 30.01 1016 10 16.0934 0 0
7:15 pm 19:15 Clear 41 5.2 31 -0.4 67 67 S 5 7 29.98 1015 10 16.0934 0 0
7:35 pm 19:35 Clear 41 5.1 31 -0.6 67 67 SSW 9 15 29.98 1015 10 16.0934 0 0
7:55 pm 19:55 Clear 43 6 31 -0.7 62 62 SSW 13 20 29.97 1015 10 16.0934 0 0
8:15 pm 20:15 Clear 42 5.3 31 -0.7 66 66 SSW 10 17 29.97 1015 10 16.0934 0 0
8:35 pm 20:35 Clear 42 5.5 30 -0.9 64 64 SW 13 20 29.96 1015 10 16.0934 0 0
8:55 pm 20:55 Clear 42 5.4 30 -1.2 63 63 WSW 5 7 29.96 1015 10 16.0934 0 0
9:15 pm 21:15 Clear 42 5.3 29 -1.5 62 62 SW 8 13 29.97 1015 10 16.0934 0 0
9:35 pm 21:35 Clear 44 6.5 29 -1.9 55 55 W 7 11 29.96 1015 10 16.0934 0 0
9:55 pm 21:55 Clear 37 2.5 29 -1.6 75 75 NW 13 20 30.02 1017 10 16.0934 0 0
10:15 pm 22:15 Clear 42 5.3 29 -1.9 60 60 WSW 7 11 30 1016 10 16.0934 0 0
10:35 pm 22:35 Clear 40 4.4 28 -2 63 63 Calm 30.01 1016 10 16.0934 0 0
10:55 pm 22:55 Clear 38 3.4 29 -1.5 71 71 WSW 7 11 30.03 1017 10 16.0934 0 0
11:15 pm 23:15 Clear 38 3.4 29 -1.7 70 70 SW 7 11 30.02 1017 10 16.0934 0 0
11:35 pm 23:35 Clear 36 2.4 29 -1.8 74 74 WSW 7 11 30.03 1017 10 16.0934 0 0
11:55 pm 23:55 Clear 35 1.4 29 -1.9 79 79 W 9 15 30.04 1017 10 16.0934 0 0

Powered by AerisWeather